Regional Weather Roundup
Issued by NWS

Home | Current Version | Previous Version | Text Only | Print | Product List | Glossary On
Versions: 1 2 3 4 5 6 7 8 9 10 11 12 13 14 15 16 17 18 19 20 21 22 23 24 25 26 27 28 29 30 31 32 33 34 35 36 37 38 39 40 41 42 43 44 45 46 47 48 49 50
000
ASUS43 KTOP 300808
RWRKS

WEATHER ROUNDUP FOR KANSAS
NATIONAL WEATHER SERVICE GOODLAND KS
300 AM CDT SAT AUG 30 2014

NOTE:  "FAIR" INDICATES FEW OR NO CLOUDS BELOW 12,000 FEET WITH NO
SIGNIFICANT WEATHER AND/OR OBSTRUCTIONS TO VISIBILITY.

KSZ001>006-013>018-027>032-041>047-300900-
NORTHWEST KANSAS

CITY           SKY/WX    TMP DP  RH WIND       PRES   REMARKS
GOODLAND       PTCLDY    58  56  93 N5        30.06S
HAYS           CLEAR     61  54  77 W7        29.96F
HILL CITY      CLEAR     62  59  90 CALM      29.98F
RUSSELL        CLEAR     66  58  75 W3        29.93S
$$

KSZ061>065-074>080-084>089-300900-
SOUTHWEST KANSAS

CITY           SKY/WX    TMP DP  RH WIND       PRES   REMARKS
DODGE CITY     CLEAR     63  56  78 SW5       30.00S
ELKHART          N/A     66  53  63 W3          N/A
GARDEN CITY    PTCLDY    63  54  72 NW3       30.03S HAZE
GREAT BEND     CLEAR     64  57  77 NW5       29.96R
LIBERAL        CLEAR     63  52  67 W3        30.05S
PRATT          CLEAR     61  57  88 W5        29.96S
$$

KSZ066>073-081>083-090>101-300900-
SOUTHEAST KANSAS

CITY           SKY/WX    TMP DP  RH WIND       PRES   REMARKS
CHANUTE        CLEAR     73  69  87 S9        29.92S
COFFEYVILLE    PTCLDY    72  69  90 S5        29.92S
HUTCHINSON     PTCLDY    67  65  93 CALM      29.93S FOG
MEDICINE LODGE   N/A     66  65  96 CALM      29.93F
NEWTON         CLEAR     68  63  83 W7        29.95R
PARSONS        MOCLDY    73  68  84 S5        29.93S
WICHITA INTL   CLEAR     67  65  93 SW5       29.91F
WICHITA JABRA  CLEAR     72  66  81 SW10      29.91F
WICHITA MCCONL CLEAR     69  69 100 S6        29.91F
WINFIELD       CLEAR     70  67  90 S3        29.93R
$$

KSZ007>012-019>026-033>040-048>060-102>105-300900-
NORTHEAST KANSAS

CITY           SKY/WX    TMP DP  RH WIND       PRES   REMARKS
CONCORDIA      CLEAR     65  64  97 W7        29.92R
EMPORIA        CLEAR     69  66  90 CALM      29.90S
LAWRENCE       CLEAR     69  65  86 CALM      29.87F
MANHATTAN      CLEAR     68  65  90 CALM      29.89S
MARYSVILLE     FOG       64  63  94 CALM      29.90R VSB 1/4
OLATHE IND     CLEAR     70  65  84 S6        29.89S
OLATHE EXE     CLEAR     71  66  84 S6        29.88F
SALINA         CLEAR     68  64  87 CALM      29.92R
TOPEKA BILLARD CLEAR     68  67  96 N6        29.88R
TOPEKA FORBES  CLEAR     69  66  90 S7        29.87F
$$



USA.gov is the U.S. government's official web portal to all federal, state and local government web resources and services.